[[{"header":{"parameterUnit":"m.s-1","parameterCategory":1,"la1":30.2991,"la2":30.254,"lo1":-89.0895,"lo2":-89.0444,"dy":0.0017,"dx":0.0017,"nx":28,"ny":28,"refTime":"2024-03-31T21:00:00:Z","depth":0,"parameterNumber":2,"parameterNumberName":"U-component_of_WINDS"},"data":[0,0,0,0,0,0,0,0,0,0,0,0,0,0,0,0,0,0,0,0,0,0,0,0,0,0,0,0,0,0,0,0,0,0,0,0,0,0,0,0,0,0,0,0,0,0,0,0,0,0,0,0,0,0,0,0,0,0,-1.9521,-1.9522,0,-1.9613,-1.9614,-1.9615,-1.9632,-1.9631,-1.963,-1.9629,-1.9725,-1.9728,-1.9731,0,0,0,0,0,0,0,0,0,0,0,0,0,-1.9363,-1.9365,-1.9521,-1.9522,-1.9523,-1.9612,-1.9614,-1.9615,-1.9632,-1.9631,-1.963,-1.9629,-1.9724,-1.9727,-1.9731,0,0,0,0,0,0,0,0,0,0,0,0,0,-1.9441,-1.9366,-1.9521,-1.9542,-1.9545,-1.9612,-1.9614,-1.9615,-1.9632,-1.9631,-1.963,-1.9629,-1.9722,-1.9727,-1.9732,-1.9784,0,0,-1.9747,-1.9749,0,0,0,0,0,0,0,0,-1.9436,-1.9446,-1.9538,-1.9541,-1.9544,-1.9609,-1.9593,-1.9672,-1.9632,-1.9599,-1.9629,-1.9628,-1.9687,-1.9695,-1.9715,-1.9789,-1.9793,-1.9747,-1.975,-1.9752,-1.9753,0,0,0,0,0,0,0,-1.9431,-1.9442,-1.9557,-1.9539,-1.9543,-1.9548,-1.9558,-1.9608,-1.9648,-1.9602,-1.9603,-1.9614,-1.9689,-1.971,-1.9717,-1.9794,-1.9747,-1.9751,-1.9754,-1.9756,-1.9917,-1.9918,0,0,0,0,0,0,-1.9421,-1.9438,-1.9554,-1.956,-1.9486,-1.9552,-1.9563,-1.959,-1.9648,-1.9656,-1.9615,-1.9614,-1.9702,-1.9711,-1.972,-1.9786,-1.9752,-1.9757,-1.9759,-1.9916,-1.9917,-1.9919,0,0,0,0,0,0,-1.9418,-1.9431,-1.9551,-1.9499,-1.9515,-1.9556,-1.9586,-1.9592,-1.9613,-1.9658,-1.9665,-1.9629,-1.9702,-1.9714,-1.9768,-1.9789,-1.9759,-1.9763,-1.9914,-1.9916,-1.9918,-1.9917,0,0,0,0,0,0,-1.9413,-1.943,-1.945,-1.95,-1.9518,-1.9596,-1.9587,-1.9595,-1.9621,-1.9622,-1.9673,-1.968,-1.9702,-1.9761,-1.9773,-1.9795,-1.9767,-1.9912,-1.9915,-1.9917,-1.9915,-1.9919,-1.9922,0,0,0,0,0,-1.9407,-1.9446,-1.945,-1.9464,-1.9543,-1.9597,-1.9608,-1.9631,-1.9623,-1.9643,-1.9672,-1.9678,-1.9785,-1.9766,-1.978,-1.9804,-1.9911,-1.9914,-1.9917,-1.9914,-1.9918,-1.9921,0,0,0,0,0,0,-1.9397,-1.9453,-1.9458,-1.9514,-1.9551,-1.96,-1.9626,-1.9635,-1.9675,-1.9674,-1.9702,-1.9714,-1.9767,-1.9791,-1.9769,-1.9859,-1.9848,-1.9854,-1.984,-1.9845,-1.9848,-1.984,-1.9771,0,0,0,0,0,-1.9401,-1.944,-1.9487,-1.9532,-1.955,-1.9585,-1.961,-1.9625,-1.9664,-1.968,-1.9713,-1.9751,-1.9794,-1.9821,-1.9862,-1.9919,-1.9931,-1.9943,-1.9946,-1.9949,-1.9953,-1.9986,-1.9992,-1.9929,-1.9929,-1.9929,0,0,-1.9411,-1.9446,-1.9468,-1.9531,-1.9561,-1.9601,-1.9598,-1.964,-1.9671,-1.9687,-1.974,-1.9766,-1.9811,-1.9867,-1.9893,-1.9889,-1.9973,-1.9953,-1.9954,-1.9957,-1.999,-1.9996,-2.0001,-1.9931,-1.9931,-1.993,0,0,-1.9447,-1.9478,-1.9518,-1.9549,-1.9595,-1.9618,-1.9628,-1.9677,-1.9694,-1.9748,-1.9761,-1.9798,-1.9871,-1.9902,-1.9928,-1.9979,-1.9986,-1.9992,-2.0008,-2.0039,-2.0044,-2.0049,-2.0067,-2.0073,-1.9996,-1.9996,-1.9996,0,-1.9453,-1.9513,-1.9538,-1.9581,-1.9608,-1.9624,-1.9666,-1.9695,-1.9752,-1.9771,-1.9765,-1.9857,-1.9889,-1.9953,-1.9965,-1.9986,-1.9998,-1.9985,-2.0042,-2.0046,-2.0051,-2.0068,-2.0075,-1.9997,-1.9997,-1.9997,-1.9997,0,-1.9518,-1.956,-1.9588,-1.9642,-1.9673,-1.9715,-1.9747,-1.9775,-1.9788,-1.9812,-1.9868,-1.9907,-1.9957,-1.9973,-1.9987,-2.004,-2.0036,-2.0036,-2.0025,-2.0057,-2.0074,-2.0081,-1.9997,-1.9997,-1.9997,-1.9997,0,0,-1.955,-1.9618,-1.9628,-1.9653,-1.9706,-1.9739,-1.9783,-1.9831,-1.9855,-1.9894,-1.9932,-1.9993,-1.9994,-2.0023,-2.004,-2.0068,-2.0106,-2.0065,-2.0066,-2.0071,-2.0168,-2.0166,-2.0174,-2.0112,-2.0113,-2.0115,-2.0164,0,-1.9592,-1.9669,-1.9693,-1.9758,-1.9797,-1.9814,-1.9852,-1.9889,-1.9913,-1.9951,-1.9979,-2.0022,-2.0019,-2.0037,-2.0065,-2.0095,-2.0126,-2.0092,-2.0147,-2.0149,-2.0134,-2.0183,-2.0182,-2.0226,-2.017,-2.0172,-2.0172,0,-1.9652,-1.9692,-1.976,-1.9809,-1.9826,-1.9859,-1.9906,-1.9942,-1.9985,-2.0001,-2.0034,-2.005,-2.0097,-2.0084,-2.015,-2.0127,-2.0151,-2.0169,-2.0172,-2.0177,-2.0162,-2.0189,-2.0241,-2.0247,-2.0183,-2.0182,-2.0182,0,-1.9668,-1.9739,-1.9789,-1.981,-1.9868,-1.9891,-1.9917,-1.9958,-1.9986,-2.0028,-2.0046,-2.0093,-2.0119,-2.0155,-2.0183,-2.0171,-2.0246,-2.0236,-2.0261,-2.026,-2.0275,-2.0273,-2.0331,-2.0292,-2.0292,-2.0292,-2.0291,0,-1.9712,-1.9753,-1.9797,-1.9827,-1.9874,-1.9903,-1.9949,-1.9975,-2.0012,-2.0049,-2.0068,-2.0102,-2.0137,-2.0177,-2.02,-2.025,-2.0262,-2.0277,-2.0282,-2.0274,-2.0272,-2.029,-2.0287,-2.0293,-2.0293,-2.0293,-2.0292,0,-1.9737,-1.9768,-1.9823,-1.9874,-1.9888,-1.992,-1.9964,-1.9995,-2.002,-2.0067,-2.0079,-2.012,-2.0168,-2.02,-2.0261,-2.0276,-2.0331,-2.0336,-2.0316,-2.0319,-2.0341,-2.0339,-2.0411,-2.0422,-2.0377,-2.0377,-2.0377,0,-1.9763,-1.9795,-1.9849,-1.9874,-1.99,-1.9941,-1.9969,-2.0,-2.0029,-2.0081,-2.0106,-2.0154,-2.0195,-2.027,-2.0305,-2.0353,-2.0359,-2.0381,-2.0366,-2.0357,-2.0358,-2.0356,-2.0359,-2.0383,-2.0383,-2.0383,-2.0384,0,-1.9806,-1.982,-1.986,-1.9906,-1.9939,-1.9977,-2.0015,-2.0035,-2.0072,-2.0105,-2.0153,-2.0184,-2.0247,-2.0295,-2.0346,-2.0373,-2.0385,-2.0388,-2.0397,-2.0389,-2.0375,-2.0383,-2.0322,-2.0386,-2.0386,-2.0386,-2.0386,-2.0386,-1.9832,-1.9861,-1.9903,-1.9948,-1.998,-2.0015,-2.0046,-2.0076,-2.0117,-2.017,-2.0186,-2.0236,-2.028,-2.0349,-2.0377,-2.0418,-2.0416,-2.0427,-2.043,-2.0433,-2.0432,-2.037,-2.0427,-2.0427,-2.0427,-2.0427,-2.0427,0,-1.9875,-1.9903,-1.9944,-1.9996,-2.0032,-2.004,-2.0083,-2.0112,-2.0156,-2.0195,-2.0234,-2.0291,-2.0338,-2.0378,-2.0427,-2.0452,-2.0459,-2.0464,-2.0462,-2.0468,-2.0432,-2.0419,-2.0457,-2.0457,-2.0457,-2.0457,-2.0457,-2.0457,-1.9901,-1.9951,-1.997,-2.0037,-2.0065,-2.0114,-2.0138,-2.0171,-2.0203,-2.0265,-2.0304,-2.0329,-2.0369,-2.0422,-2.0466,-2.0476,-2.0493,-2.0497,-2.0509,-2.0474,-2.047,-2.0467,-2.0456,-2.0501,-2.0501,-2.0542,-2.0542,-2.0542]},{"header":{"parameterUnit":"m.s-1","parameterCategory":1,"la1":30.2991,"la2":30.254,"lo1":-89.0895,"lo2":-89.0444,"dy":0.0017,"dx":0.0017,"nx":28,"ny":28,"refTime":"2024-03-31T21:00:00:Z","depth":0,"parameterNumber":3,"parameterNumberName":"V-component_of_WINDS"},"data":[0,0,0,0,0,0,0,0,0,0,0,0,0,0,0,0,0,0,0,0,0,0,0,0,0,0,0,0,0,0,0,0,0,0,0,0,0,0,0,0,0,0,0,0,0,0,0,0,0,0,0,0,0,0,0,0,0,0,3.0193,3.0193,0,3.012,3.0119,3.0118,3.0107,3.0107,3.0108,3.0109,3.0027,3.0025,3.0022,0,0,0,0,0,0,0,0,0,0,0,0,0,3.0322,3.032,3.0194,3.0193,3.0192,3.012,3.0119,3.0118,3.0107,3.0107,3.0108,3.0109,3.0028,3.0025,3.0022,0,0,0,0,0,0,0,0,0,0,0,0,0,3.0259,3.0319,3.0194,3.0178,3.0176,3.012,3.0119,3.0117,3.0106,3.0108,3.0109,3.0109,3.0029,3.0025,3.0021,2.9974,0,0,3.0008,3.0006,0,0,0,0,0,0,0,0,3.0263,3.0254,3.0181,3.0179,3.0176,3.0124,3.0134,3.0069,3.0106,3.0132,3.0109,3.011,3.0058,3.0052,3.0035,2.9971,2.9967,3.0008,3.0005,3.0004,3.0002,0,0,0,0,0,0,0,3.0267,3.0257,3.0164,3.018,3.0177,3.0173,3.0165,3.0122,3.009,3.013,3.0129,3.0121,3.0057,3.0039,3.0033,2.9966,3.0008,3.0004,3.0002,3.0,2.9862,2.9861,0,0,0,0,0,0,3.0275,3.0261,3.0166,3.0162,3.0223,3.017,3.0161,3.0139,3.0091,3.0084,3.012,3.0121,3.0046,3.0038,3.003,2.9974,3.0004,3.0,2.9997,2.9863,2.9862,2.9861,0,0,0,0,0,0,3.0278,3.0267,3.0169,3.0211,3.0199,3.0167,3.0142,3.0137,3.012,3.0083,3.0077,3.0108,3.0047,3.0036,2.999,2.9971,2.9998,2.9994,2.9865,2.9863,2.9861,2.9861,0,0,0,0,0,0,3.0281,3.0268,3.025,3.0211,3.0197,3.0131,3.0141,3.0135,3.0113,3.0113,3.007,3.0064,3.0047,2.9996,2.9985,2.9966,2.9991,2.9866,2.9864,2.9862,2.9862,2.9859,2.9857,0,0,0,0,0,3.0286,3.0251,3.0249,3.0238,3.0174,3.013,3.0121,3.0103,3.0112,3.0094,3.0071,3.0066,2.9975,2.9991,2.9979,2.9958,2.9867,2.9864,2.9862,2.9863,2.986,2.9857,0,0,0,0,0,0,3.0286,3.0246,3.0243,3.0195,3.0166,3.0128,3.0104,3.0099,3.0066,3.0067,3.0045,3.0035,2.999,2.9969,2.9988,2.9912,2.9922,2.9917,2.9927,2.9923,2.9921,2.9926,2.9987,0,0,0,0,0,3.0281,3.025,3.0215,3.0176,3.0162,3.0136,3.0115,3.0105,3.0073,3.006,3.0034,3.0002,2.9967,2.9944,2.9909,2.986,2.9851,2.9839,2.9837,2.9835,2.983,2.9804,2.9799,2.9852,2.9852,2.9852,0,0,3.0269,3.0243,3.0224,3.0175,3.0152,3.0119,3.0125,3.009,3.0065,3.0054,3.001,2.9989,2.9952,2.9905,2.9882,2.9886,2.9814,2.9831,2.983,2.9827,2.9801,2.9796,2.9792,2.985,2.9851,2.9851,0,0,3.023,3.0208,3.0173,3.0151,3.0116,3.01,3.0092,3.0055,3.0042,2.9997,2.9989,2.9959,2.9898,2.9873,2.9853,2.9809,2.9803,2.9798,2.9783,2.9758,2.9754,2.975,2.9736,2.9731,2.9794,2.9794,2.9794,0,3.0219,3.0171,3.0156,3.0122,3.0101,3.0093,3.0058,3.0036,2.9991,2.9977,2.9982,2.9908,2.9883,2.983,2.982,2.9803,2.9793,2.9802,2.9756,2.9752,2.9749,2.9734,2.9729,2.9794,2.9794,2.9794,2.9794,0,3.016,3.0127,3.0103,3.0063,3.004,3.0005,2.9984,2.9962,2.9954,2.9937,2.9893,2.9863,2.9823,2.981,2.98,2.9756,2.976,2.9761,2.977,2.9744,2.973,2.9724,2.9793,2.9793,2.9793,2.9793,0,0,3.0117,3.0072,3.0064,3.0047,3.001,2.9983,2.9949,2.9912,2.9895,2.9864,2.9835,2.9786,2.9788,2.9765,2.9753,2.9731,2.97,2.9735,2.9734,2.973,2.9651,2.9651,2.9645,2.9697,2.9696,2.9695,2.9655,0,3.0075,3.0016,3.0002,2.9951,2.9921,2.9914,2.9884,2.9858,2.9842,2.9813,2.9795,2.9761,2.9765,2.9752,2.973,2.9708,2.9684,2.9711,2.9669,2.9668,2.9679,2.9638,2.9636,2.96,2.9649,2.9648,2.9648,0,3.0017,2.999,2.9936,2.9906,2.9893,2.9866,2.9833,2.9806,2.9777,2.9766,2.9743,2.9734,2.9698,2.971,2.966,2.9679,2.9661,2.9649,2.9647,2.9642,2.9656,2.9632,2.9588,2.9582,2.9639,2.964,2.964,0,2.9993,2.9942,2.9904,2.9889,2.9852,2.9835,2.9818,2.979,2.977,2.9741,2.9728,2.9694,2.9675,2.9649,2.9631,2.9642,2.9584,2.9594,2.9574,2.9574,2.9561,2.9562,2.9514,2.9549,2.955,2.955,2.955,0,2.9948,2.9915,2.9893,2.9869,2.9834,2.9819,2.9783,2.9766,2.9742,2.9715,2.9706,2.9681,2.9659,2.963,2.9616,2.9578,2.9569,2.956,2.9556,2.9561,2.9562,2.9548,2.955,2.9548,2.9549,2.9549,2.9549,0,2.9914,2.9898,2.9856,2.9826,2.9818,2.9793,2.9766,2.9743,2.9728,2.9694,2.9685,2.9661,2.9627,2.9608,2.9564,2.9555,2.9513,2.951,2.9523,2.9522,2.9504,2.9506,2.9445,2.9436,2.9477,2.9477,2.9477,0,2.9886,2.9861,2.983,2.9813,2.9797,2.9768,2.9749,2.9733,2.9713,2.968,2.9661,2.9628,2.96,2.9547,2.9524,2.9492,2.9488,2.9469,2.9483,2.9489,2.9489,2.9491,2.9489,2.9467,2.9466,2.9466,2.9466,0,2.9839,2.9833,2.9806,2.9777,2.9755,2.973,2.9706,2.9692,2.9673,2.9651,2.9618,2.9597,2.9555,2.9522,2.9488,2.947,2.9465,2.9462,2.9456,2.946,2.9469,2.9465,2.9517,2.9463,2.9463,2.9464,2.9464,2.9464,2.9807,2.9786,2.9762,2.9733,2.9714,2.9692,2.967,2.9654,2.9627,2.9593,2.9585,2.9551,2.9524,2.9478,2.946,2.9433,2.9435,2.9426,2.9424,2.9422,2.9422,2.9474,2.9426,2.9426,2.9426,2.9426,2.9426,0,2.976,2.9745,2.9719,2.9687,2.9665,2.9664,2.9639,2.9619,2.959,2.9566,2.9541,2.9504,2.9472,2.9449,2.9417,2.94,2.9397,2.9392,2.9393,2.9389,2.9421,2.943,2.9395,2.9395,2.9395,2.9395,2.9395,2.9395,2.9733,2.9698,2.969,2.9646,2.963,2.9598,2.9584,2.9564,2.9546,2.9506,2.9481,2.9467,2.9443,2.941,2.9382,2.9376,2.9364,2.936,2.9354,2.9383,2.9387,2.939,2.9398,2.9358,2.9358,2.9325,2.9325,2.9324]}]]